Regional Weather Roundup
Issued by NWS

Home | Current Version | Previous Version | Graphics & Text | Print | Product List | Glossary On
Versions: 1 2 3 4 5 6 7 8 9 10 11 12 13 14 15 16 17 18 19 20 21 22 23 24 25 26 27 28 29 30 31 32 33 34 35 36 37 38 39 40 41 42 43 44 45 46 47 48
000
ASUS45 KBOU 261007
RWRCO

WEATHER ROUNDUP FOR COLORADO
NATIONAL WEATHER SERVICE DENVER/BOULDER CO
300 AM MST MON JAN 26 2015

NOTE: "FAIR" INDICATES FEW OR NO CLOUDS BELOW 12000 FEET WITH NO
SIGNIFICANT WEATHER AND/OR OBSTRUCTIONS TO VISIBILITY.

COZ001>005-013-030-031-261100-
...NORTHWEST COLORADO...

CITY           SKY/WX    TMP DP  RH WIND       PRES   REMARKS
CRAIG          PTCLDY    16  15  96 CALM      30.42R
HAYDEN         PTCLDY    23  18  80 SE9       30.41R WCI  13
MEEKER         PTCLDY    17  14  88 CALM      30.41S
MOUNT WERNER   NOT AVBL
STEAMBOAT SPGS PTCLDY    17  16  95 CALM      30.43R
WALDEN         PTCLDY    19  14  79 SE7       30.41F WCI  10
$$

COZ006>008-011-261100-
...WEST CENTRAL VALLEYS...

CITY           SKY/WX    TMP DP  RH WIND       PRES   REMARKS
GRAND JUNCTION CLEAR     28  23  81 NE3       30.38R
MONTROSE       CLEAR     24  20  84 S8        30.42R WCI  15
EAGLE          PTCLDY    19  19 100 SE3       30.49R
RIFLE          PTCLDY    26  21  81 E6        30.41S WCI  19
DELTA          CLEAR     26  20  80 NE3       30.42R
NUCLA          CLEAR     30  23  74 E7        30.41S WCI  23
$$

COZ017>023-064>068-261100-
...SOUTHWEST COLORADO...

CITY           SKY/WX    TMP DP  RH WIND       PRES   REMARKS
DURANGO        PTCLDY    25  19  78 N3        30.37F
CORTEZ         CLEAR     23  19  85 E8        30.38R WCI  14
PAGOSA SPRINGS PTCLDY    25  19  77 CALM      30.42S
TELLURIDE      PTCLDY    31  17  54 CALM      30.45R
WOLF CREEK PAS NOT AVBL
$$

COZ009-010-012-014-032>034-037-058>063-261100-
...CENTRAL COLORADO...

CITY           SKY/WX    TMP DP  RH WIND       PRES   REMARKS
ASPEN          PTCLDY    23  16  74 CALM      30.41S
BUENA VISTA    CLEAR     35  21  56 W15       30.38S WCI  26
COPPER MTN     PTCLDY    34  16  47 NW3       30.52F
BERTHOUD PASS  FAIR      19  14  79 NW17      30.52R WCI   4
COTTONWOOD PAS CLEAR     43  10  26 SE6       30.43S
GUNNISON       PTCLDY     0  -9  65 CALM      30.51R
KREMMLING      PTCLDY    12  10  92 CALM      30.49S
LEADVILLE      PTCLDY    19  13  77 NE6       30.45F WCI  11
MONARCH PASS   PTCLDY    32  12  43 E14G20    30.60R WCI  22
SALIDA         CLEAR     29  20  67 CALM      30.47R
SUNLIGHT       PTCLDY    32  21  64 CALM        N/A
WILKERSON PASS PTCLDY    34  12  40 N13G21    30.48S WCI  25
$$

COZ069>075-261100-
...SAN LUIS VALLEY/SANGRE DE CRISTO MOUNTAINS...

CITY           SKY/WX    TMP DP  RH WIND       PRES   REMARKS
ALAMOSA        PTCLDY    10   7  87 S7        30.40R WCI  -1
LA VETA PASS   NOT AVBL
SAGUACHE       PTCLDY    27  18  69 NW8       30.41R WCI  18
$$

COZ035-036-038>040-261100-
...NORTHERN COLORADO FRONT RANGE...

CITY           SKY/WX    TMP DP  RH WIND       PRES   REMARKS
DENVER INTL AP MOCLDY    42  25  50 SW14      30.20S
DMNS CITY PARK   N/A     39  23  51 S8        30.21S
AURORA         PTCLDY    40  24  53 S12       30.22S
FRONT RANGE AP NOT AVBL
ERIE MUNI ARPT PTCLDY    33  26  73 CALM      30.19F
BOULDER MUN AP PTCLDY    41  23  48 CALM      30.19F
CENTENNIAL     PTCLDY    36  25  64 S6        30.23S
BROOMFIELD     PTCLDY    45  23  42 SW7       30.21F
FORT COLLINS   MOCLDY    32  25  74 E6        30.20S WCI  26
LONGMONT       MOCLDY    36  26  65 NW3       30.21S
$$

COZ041-046-047-076>085-087-088-261100-
...PIKES PEAK/PALMER DIVIDE AND SOUTHERN FOOTHILLS...

CITY           SKY/WX    TMP DP  RH WIND       PRES   REMARKS
COLO. SPRINGS  PTCLDY    36  24  62 N12       30.26S
A. F. ACADEMY  PTCLDY    28  22  77 N8        30.27S WCI  20
ELLICOTT       CLEAR    N/A N/A N/A N6        30.25R
FALCON         CLEAR     38  22  51 NW8       30.29R
FORT CARSON    CLEAR     34  24  65 N12       30.24S WCI  26
LIMON          CLEAR     34  26  72 W14       30.21R WCI  25
MONUMENT HILL  PTCLDY    34  23  64 W8        30.27S WCI  27
TRINIDAD       PTCLDY    36  23  59 W16       30.27S
$$

COZ042>045-048>051-090-091-261100-
...NORTHEAST COLORADO...

CITY           SKY/WX    TMP DP  RH WIND       PRES   REMARKS
GREELEY ARPT   CLOUDY    28  21  74 W3        30.18S
AKRON          PTCLDY    34  28  79 W13       30.14F WCI  25
BURLINGTON     PTCLDY    35  28  75 W9        30.14S WCI  28
WRAY           PTCLDY    41  31  68 W12       30.10S
STERLING       PTCLDY    43  32  65 NW10      30.12F
HOLYOKE        PTCLDY    46  32  57 W15G21    30.09F
FORT MORGAN    PTCLDY    32  28  83 W12       30.17S WCI  23
$$

COZ086-089-092>099-261100-
...SOUTHEAST COLORADO...

CITY           SKY/WX    TMP DP  RH WIND       PRES   REMARKS
PUEBLO         PTCLDY    30  26  85 W3        30.23S
LA JUNTA       CLEAR     35  28  75 W12       30.20S WCI  27
LAMAR          PTCLDY    31  27  85 W7        30.17F WCI  24
SPRINGFIELD      N/A     34  26  72 W5        30.19F WCI  30
$$


USA.gov is the U.S. government's official web portal to all federal, state and local government web resources and services.